Regional Weather Roundup
Issued by NWS Mt. Holly, NJ

Home | Current Version | Previous Version | Text Only | Print | Product List | Glossary On
Versions: 1 2 3 4 5 6 7 8 9 10 11 12 13 14 15 16 17 18 19 20 21 22 23 24 25 26 27
000
ASUS41 KPHI 212011
RWRPHI

REGIONAL WEATHER ROUNDUP
NATIONAL WEATHER SERVICE MOUNT HOLLY NJ
300 PM EST TUE FEB 21 2017

NOTE:  "FAIR" INDICATES FEW OR NO CLOUDS BELOW 12,000 FEET WITH NO
SIGNIFICANT WEATHER AND/OR OBSTRUCTIONS TO VISIBILITY.

 * = STATION DOES NOT REPORT PRECIPITATION (E.G. RAIN, SNOW, ETC.)
        OR FOG.

NJZ015>026-212100-
SOUTHERN NEW JERSEY

CITY           SKY/WX    TMP DP  RH WIND       PRES   REMARKS
POMONA         CLOUDY    48  30  49 SE9       30.25F
WILDWOOD*      MOSUNNY   46  32  58 SE12      30.26F
MILLVILLE      MOSUNNY   48  34  58 SE9       30.24F
WRIGHTSTOWN    CLOUDY    51  29  42 S6        30.20F
MOUNT HOLLY    PTSUNNY   52  27  38 SE6       30.22F
TRENTON        CLOUDY    50  27  40 SW9       30.22F

$$
NJZ001>014-212100-
NORTHERN NEW JERSEY

CITY           SKY/WX    TMP DP  RH WIND       PRES   REMARKS
SUSSEX         CLOUDY    47  26  44 S7        30.20F
ANDOVER*         N/A     46  27  47 VRB5      30.20F
MORRISTOWN     PTSUNNY   48  28  46 S6        30.23F
NEWARK         CLOUDY    44  32  62 VRB7      30.24F
TETERBORO      CLOUDY    47  31  53 S9        30.24F
CALDWELL       PTSUNNY   47  29  49 S10       30.23F
SOMERVILLE     CLOUDY    50  25  37 SE7       30.21F
ALLAIRE*       CLOUDY    44  29  55 SE9       30.26F
TOMS RIVER*    PTSUNNY   46  31  55 SE12      30.25F

$$
PAZ043-044-047-054-055-060>062-066>071-212100-
EASTERN PENNSYLVANIA

CITY           SKY/WX    TMP DP  RH WIND       PRES   REMARKS
PHILADELPHIA   CLOUDY    51  29  42 SW10      30.23F
NORTH PHILA    CLOUDY    52  28  39 SW8       30.24F
BLUE BELL*     MOSUNNY   48  30  49 S7        30.22S
DOYLESTOWN     MOSUNNY   50  28  42 S8        30.21F
QUAKERTOWN*    CLOUDY    48  27  43 S7        30.21F
PERKASIE*      FAIR      46  25  42 S6        30.22S
POTTSTOWN      MOSUNNY   48  25  40 S6        30.23F
LANCASTER      CLOUDY    50  29  44 S10       30.19F
COATESVILLE    CLOUDY    48  30  49 VRB5G12   30.21F
READING        CLOUDY    51  29  42 S10       30.19F
ALLENTOWN      MOSUNNY   50  27  40 S9        30.21F
MOUNT POCONO   MOSUNNY   40  25  55 S10       30.15F WCI  33
WILKES BARRE   MOSUNNY   47  22  37 S9        30.15F

$$
DEZALL-MDZ008-012-015-019-020-212100-
DELAWARE AND EASTERN MARYLAND

CITY           SKY/WX    TMP DP  RH WIND       PRES   REMARKS
WILMINGTON     CLOUDY    46  34  62 S14       30.24F
DOVER          CLOUDY    46  37  70 E12       30.23F
GEORGETOWN     MOSUNNY   53  36  52 SE9       30.24F
EASTON         PTSUNNY   55  28  35 SW7       30.26F
ABERDEEN       CLOUDY    52  28  39 S7        30.22F
PATUXENT       PTSUNNY   50  40  68 SE10      30.22F
OCEAN CITY     CLOUDY    47  37  68 SE9       30.26F
WALLOPS ISLAND MOSUNNY   49  37  63 SE9       30.25F
SALISBURY      CLOUDY    53  36  52 S9        30.23F

$$
PAZ001-021-NYZ056-072-MDZ011-DCZ001-212100-
OTHER NEARBY LOCATIONS

CITY           SKY/WX    TMP DP  RH WIND       PRES   REMARKS
HARRISBURG     CLOUDY    50  28  42 SE7       30.17F
STATE COLLEGE  SUNNY     48  25  40 S9        30.10F
WILLIAMSPORT   MOSUNNY   48  20  32 VRB3      30.13F
BINGHAMTON     CLOUDY    41  17  38 S15G23    30.06F
NEW YORK CITY  CLOUDY    44  30  57 VRB7G17   30.26F
BALTIMORE      CLOUDY    52  32  46 E10       30.20F
WASHINGTON DC  CLOUDY    57  32  38 S12       30.20F

$$




USA.gov is the U.S. government's official web portal to all federal, state and local government web resources and services.